Weather History for PAVD - October, 2012

Change the Weather History Date:

Sunday, October 7, 2012

  Actual Average Record
Temperature  
Mean Temperature 44 °F -  
Max Temperature 46 °F 47 °F 57 °F (2000)
Min Temperature 41 °F 37 °F 23 °F (1967)
Degree Days  
Heating Degree Days 22    
Moisture  
Dew Point 42 °F    
Average Humidity 91    
Maximum Humidity 100    
Minimum Humidity 81    
Precipitation  
Precipitation 0.00 in - - ()
Sea Level Pressure  
Sea Level Pressure 30.37 in    
Wind  
Wind Speed 1 mph (East)    
Max Wind Speed 6 mph    
Max Gust Speed -    
Visibility 5 miles    
Events Rain    
Averages and records for this station are not official NWS values.
T = Trace of Precipitation, MM = Missing Value Source: NWS Daily Summary

Daily Weather History Graph

Daily Weather History Graph

Search for Another Location

Airport or City:

Trip Planner

Search our weather history database for the weather conditions in past years. The results will help you decide how hot, cold, wet, or windy it might be!

Date:

Astronomy

Oct. 07, 2012 Rise Set
Actual Time 8:08 AM AKDT 6:55 PM AKDT
Civil Twilight 7:25 AM AKDT 7:38 PM AKDT
Nautical Twilight 6:35 AM AKDT 8:28 PM AKDT
Astronomical Twilight 5:43 AM AKDT 9:19 PM AKDT
Moon 11:08 PM AKDT (10/7) 4:02 PM AKDT (10/7)
Length of Visible Light 12h 13m
Length of Day
10h 47m
Waning Gibbous, 55% of the Moon is Illuminated
Oct 7
Waning Gibbous
Oct 7
Last Quarter
Oct 15
New
Oct 21
First Quarter
Oct 29
Full

Hourly Weather History & Observations

Time (AKDT) Temp. Windchill Dew Point Humidity Pressure Visibility Wind Dir Wind Speed Gust Speed Precip Events Conditions
12:16 AM 42.8 °F 41.1 °F 41.0 °F 93% 30.39 in 10.0 mi East 3.5 mph - N/A   Overcast
12:36 AM 42.8 °F - 39.2 °F 87% 30.40 in 10.0 mi Calm Calm - N/A   Overcast
12:56 AM 42.8 °F 41.1 °F 41.0 °F 93% 30.39 in 10.0 mi ESE 3.5 mph - N/A   Overcast
1:16 AM 42.8 °F 41.1 °F 39.2 °F 87% 30.40 in 10.0 mi East 3.5 mph - N/A   Overcast
1:36 AM 42.8 °F 41.1 °F 39.2 °F 87% 30.40 in 10.0 mi East 3.5 mph - N/A   Overcast
1:56 AM 42.8 °F - 39.2 °F 87% 30.40 in 10.0 mi Calm Calm - N/A   Overcast
2:16 AM 42.8 °F 40.1 °F 39.2 °F 87% 30.40 in 10.0 mi ENE 4.6 mph - N/A   Overcast
2:36 AM 42.8 °F 41.1 °F 39.2 °F 87% 30.40 in 10.0 mi ENE 3.5 mph - N/A   Mostly Cloudy
2:56 AM 42.8 °F 41.1 °F 39.2 °F 87% 30.40 in 10.0 mi ENE 3.5 mph - N/A   Overcast
3:16 AM 42.8 °F 41.1 °F 39.2 °F 87% 30.39 in 10.0 mi East 3.5 mph - N/A   Overcast
3:36 AM 41.0 °F 37.1 °F 37.4 °F 87% 30.39 in 10.0 mi East 5.8 mph - N/A   Overcast
3:56 AM 41.0 °F 39.0 °F 39.2 °F 93% 30.39 in 10.0 mi East 3.5 mph - N/A   Overcast
4:16 AM 41.0 °F - 39.2 °F 93% 30.39 in 10.0 mi Calm Calm - N/A   Overcast
4:36 AM 42.8 °F - 39.2 °F 87% 30.38 in 10.0 mi Calm Calm - N/A   Overcast
4:56 AM 42.8 °F - 39.2 °F 87% 30.38 in 10.0 mi Calm Calm - N/A   Overcast
5:16 AM 41.0 °F - 37.4 °F 87% 30.38 in 10.0 mi Calm Calm - N/A   Overcast
5:36 AM 42.8 °F - 37.4 °F 81% 30.38 in 10.0 mi Calm Calm - N/A   Overcast
5:56 AM 42.8 °F - 39.2 °F 87% 30.39 in 5.0 mi Calm Calm - N/A   Overcast
6:16 AM 42.8 °F - 41.0 °F 93% 30.38 in 5.0 mi Calm Calm - N/A   Overcast
6:36 AM 42.8 °F - 39.2 °F 87% 30.38 in 5.0 mi Calm Calm - N/A   Overcast
6:56 AM 42.8 °F 41.1 °F 39.2 °F 87% 30.38 in 4.0 mi ESE 3.5 mph - N/A   Overcast
7:16 AM 42.8 °F - 39.2 °F 87% 30.37 in 4.0 mi Calm Calm - N/A   Overcast
7:36 AM 42.8 °F - 39.2 °F 87% 30.38 in 4.0 mi Calm Calm - N/A   Overcast
7:56 AM 41.0 °F 39.0 °F 39.2 °F 93% 30.38 in 4.0 mi East 3.5 mph - N/A   Overcast
8:16 AM 42.8 °F - 39.2 °F 87% 30.38 in 4.0 mi Calm Calm - N/A   Overcast
8:36 AM 42.8 °F 41.1 °F 41.0 °F 93% 30.38 in 4.0 mi East 3.5 mph - N/A   Overcast
8:56 AM 42.8 °F - 39.2 °F 87% 30.38 in 3.0 mi Calm Calm - N/A   Overcast
9:16 AM 42.8 °F - 39.2 °F 87% 30.38 in 3.0 mi Calm Calm - N/A   Overcast
9:36 AM 42.8 °F - 39.2 °F 87% 30.38 in 3.0 mi Calm Calm - N/A   Overcast
9:56 AM 42.8 °F - 39.2 °F 87% 30.39 in 5.0 mi Calm Calm - N/A   Overcast
10:16 AM 42.8 °F - 39.2 °F 87% 30.38 in 5.0 mi Calm Calm - N/A   Overcast
10:36 AM 42.8 °F - 41.0 °F 93% 30.38 in 5.0 mi Calm Calm - N/A   Overcast
10:56 AM 44.6 °F - 41.0 °F 87% 30.38 in 2.0 mi Calm Calm - N/A   Overcast
11:16 AM 44.6 °F - 42.8 °F 93% 30.38 in 2.0 mi Calm Calm - N/A   Overcast
11:36 AM 44.6 °F - 42.8 °F 93% 30.38 in 2.0 mi Calm Calm - N/A   Overcast
11:56 AM 44.6 °F - 42.8 °F 93% 30.39 in 2.0 mi Calm Calm - N/A   Overcast
12:16 PM 44.6 °F - 42.8 °F 93% 30.40 in 2.0 mi Calm Calm - N/A   Overcast
12:36 PM 44.6 °F - 42.8 °F 93% 30.39 in 2.0 mi Calm Calm - N/A   Overcast
12:56 PM 44.6 °F - 42.8 °F 93% 30.39 in 1.5 mi Calm Calm - N/A   Overcast
1:16 PM 44.6 °F - 42.8 °F 93% 30.39 in 2.5 mi Calm Calm - N/A   Overcast
1:36 PM 46.4 °F - 42.8 °F 87% 30.38 in 2.5 mi Calm Calm - N/A   Overcast
1:56 PM 46.4 °F - 44.6 °F 93% 30.39 in 5.0 mi Calm Calm - N/A   Overcast
2:16 PM 46.4 °F - 44.6 °F 93% 30.38 in 5.0 mi Calm Calm - N/A   Overcast
2:36 PM 46.4 °F - 44.6 °F 93% 30.38 in 5.0 mi Calm Calm - N/A   Overcast
2:56 PM 46.4 °F - 42.8 °F 87% 30.37 in 5.0 mi Calm Calm - N/A   Overcast
3:16 PM 46.4 °F - 44.6 °F 93% 30.37 in 5.0 mi Calm Calm - N/A   Overcast
3:36 PM 46.4 °F - 44.6 °F 93% 30.37 in 5.0 mi Calm Calm - N/A   Overcast
3:56 PM 46.4 °F 45.2 °F 44.6 °F 93% 30.36 in 4.0 mi ESE 3.5 mph - N/A   Overcast
4:16 PM 46.4 °F - 42.8 °F 87% 30.37 in 4.0 mi Calm Calm - N/A   Overcast
4:36 PM 46.4 °F - 44.6 °F 93% 30.36 in 4.0 mi Calm Calm - N/A   Overcast
4:56 PM 46.4 °F - 44.6 °F 93% 30.35 in 5.0 mi Calm Calm - N/A   Overcast
5:16 PM 46.4 °F - 44.6 °F 93% 30.35 in 5.0 mi Calm Calm - N/A   Overcast
5:36 PM 46.4 °F - 44.6 °F 93% 30.34 in 5.0 mi Calm Calm - N/A   Overcast
5:56 PM 46.4 °F - 44.6 °F 93% 30.34 in 3.0 mi Calm Calm - N/A   Overcast
6:16 PM 46.4 °F - 44.6 °F 93% 30.34 in 3.0 mi Calm Calm - N/A   Overcast
6:36 PM 44.6 °F - 44.6 °F 100% 30.34 in 3.0 mi Calm Calm - N/A   Overcast
6:37 PM 44.6 °F - 44.6 °F 100% 30.34 in 3.0 mi Calm Calm - N/A Rain Light Rain
6:56 PM 44.6 °F - 42.8 °F 93% 30.34 in 1.5 mi Calm Calm - N/A   Overcast
7:16 PM 44.6 °F - 42.8 °F 93% 30.34 in 1.5 mi Calm Calm - N/A   Overcast
7:36 PM 44.6 °F - 42.8 °F 93% 30.34 in 1.5 mi Calm Calm - N/A   Overcast
7:56 PM 44.6 °F - 42.8 °F 93% 30.33 in 1.0 mi Calm Calm - N/A   Overcast
8:16 PM 44.6 °F - 42.8 °F 93% 30.34 in 1.0 mi Calm Calm - N/A   Overcast
8:36 PM 44.6 °F - 42.8 °F 93% 30.34 in 1.0 mi Calm Calm - N/A   Overcast
8:56 PM 44.6 °F - 42.8 °F 93% 30.34 in 0.8 mi Calm Calm - N/A   Overcast
9:16 PM 44.6 °F - 42.8 °F 93% 30.34 in 0.8 mi Calm Calm - N/A   Overcast
9:36 PM 44.6 °F - 42.8 °F 93% 30.34 in 0.8 mi Calm Calm - N/A   Overcast
9:56 PM 44.6 °F - 42.8 °F 93% 30.33 in 1.0 mi Calm Calm - N/A   Overcast
10:16 PM 44.6 °F - 42.8 °F 93% 30.33 in 4.0 mi Calm Calm - N/A   Overcast
10:36 PM 44.6 °F - 42.8 °F 93% 30.33 in 5.0 mi Calm Calm - N/A   Overcast
10:56 PM 44.6 °F - 42.8 °F 93% 30.33 in 8.0 mi Calm Calm - N/A   Overcast
11:16 PM 44.6 °F - 42.8 °F 93% 30.33 in 5.0 mi Calm Calm - N/A   Overcast
11:36 PM 42.8 °F - 42.8 °F 100% 30.33 in 5.0 mi Calm Calm - N/A   Overcast
11:56 PM 42.8 °F 40.1 °F 42.8 °F 100% 30.32 in 9.0 mi East 4.6 mph - N/A   Overcast